COSMOS 2522 (752)

Last updated on Sat Sep 05 2026 00:03:26 GMT+0000 (Coordinated Universal Time)

1 42939U 17055A 26246.48913868 .00000043 00000+0 00000+0 0 9997 2 42939 64.0806 189.2203 0009842 237.7690 122.1345 2.13102004 69641
UTC large
Height (km)
Speed (km/s)
/
Latitude / Longitude
Inclination (degrees)
Orbital Period (minutes)
Azimuth
Elevation
Range (km)
Doppler Factor

Next 0 passes for location: London (51.5072 / 0.1276)

No passes found over London.
COSMOS 2522 (752)